User: anonymous   Login
Location: *
(43.0409°N, 0.1694°E)
Time: 11:57:10
(UTC+00:00)
Language:

Lacrosse 5 rocket - Orbit

View from above orbital plane
View from above orbital plane
View from above satellite
View from above satellite

Ground track
Ground track

The orbit data is extracted from the following two-line orbital elements,

1 28647U 05016B   24056.93769738  .00008495  00000-0  38949-3 0  9990
2 28647  56.9916 133.4456 0107308  68.1858 293.0560 15.16290445263470
Epoch (UTC): 25 February 2024 22:30:17
Eccentricity: 0.0107308
inclination: 56.9916°
perigee height: 443 km
apogee height: 591 km
right ascension of ascending node: 133.4456°
argument of perigee: 68.1858°
revolutions per day: 15.16290445
mean anomaly at epoch: 293.0560°
orbit number at epoch: 26347

The dashed part of the orbit path shows where the satellite is in the earth's shadow,  

DLR